Starlink 30349

operational
NORAD ID: 57713 Int'l Des: 2023-129 Owner: SPXS Country: US Constellation: starlink
LEOCIRCULAR

About Starlink 30349

Description loading...

Live Position

Loading 3D Globe...

Upcoming Passes

Altitude History

Altitude vs Time

uPlot chart will show altitude changes over time

Two-Line Element Set

1 57713U 23129R 26037.10180727 .00001234 00000-0 10639-3 0 9996
2 57713 43.0038 291.8601 0000982 275.1455 84.9275 15.02539127135760
Epoch: Feb 6, 2026 • Age: 7 hours

Current Status

Altitude 568.3 km
Velocity 7.58 km/s
Sub-Earth Point -34.30°S, 127.73°W
Launch Date Aug 27, 2023
Age 2.4 years
Type internet

Technical Details

Classification Payload
Mass 730.00 kg
Dry Mass 700.00 kg
Total Mass 730.00 kg
Length 0.30 m
Diameter 4.10 m
Span 29.00 m
Shape Box + pan
Manufacturer SPXS
Bus Type Starlink V2M
Phase Status In Orbit
Owner/State SPXS/US

Large Constellations

Loading constellations...